| time (UTC) | temp F | wind direction | speed MPH | gust MPH | rain 1hr in | rain 24hr in | rain mn in | humidity % | barometer mb |
| 20260904194548 | 70 | 350 | 0.0 | 5.0 | 0.01 | 0.28 | 0.03 | 76 | 1005.1 |
| 20260904193051 | 69 | 294 | 0.0 | 4.0 | 0.01 | 0.28 | 0.03 | 79 | 1005.2 |
| 20260904191546 | 71 | 14 | 1.0 | 6.0 | 0.01 | 0.28 | 0.03 | 73 | 1005.3 |
| 20260904190045 | 72 | 17 | 0.0 | 5.0 | 0.00 | 0.27 | 0.02 | 71 | 1005.2 |
| 20260904184544 | 73 | 321 | 0.0 | 3.0 | 0.00 | 0.28 | 0.02 | 66 | 1005.4 |
| 20260904183042 | 74 | 317 | 1.0 | 5.0 | 0.00 | 0.28 | 0.02 | 67 | 1005.4 |
| 20260904181540 | 73 | 355 | 0.0 | 4.0 | 0.00 | 0.28 | 0.02 | 69 | 1005.5 |
| 20260904180037 | 71 | 323 | 0.0 | 3.0 | 0.00 | 0.28 | 0.02 | 71 | 1005.6 |
| 20260904174535 | 71 | 313 | 0.0 | 3.0 | 0.00 | 0.31 | 0.02 | 72 | 1005.7 |
| 20260904173034 | 70 | 53 | 0.0 | 5.0 | 0.00 | 0.31 | 0.02 | 74 | 1005.8 |
| 20260904171538 | 70 | 309 | 0.0 | 6.0 | 0.00 | 0.31 | 0.02 | 76 | 1005.9 |
| 20260904170027 | 69 | 298 | 0.0 | 7.0 | 0.00 | 0.33 | 0.02 | 77 | 1005.9 |
| 20260904164529 | 67 | 335 | 0.0 | 3.0 | 0.00 | 0.33 | 0.02 | 80 | 1006.2 |
| 20260904163023 | 66 | 293 | 0.0 | 3.0 | 0.00 | 0.33 | 0.02 | 81 | 1006.2 |
| 20260904161518 | 66 | 348 | 0.0 | 6.0 | 0.00 | 0.33 | 0.02 | 81 | 1006.4 |
| 20260904160022 | 66 | 336 | 0.0 | 1.0 | 0.00 | 0.36 | 0.02 | 82 | 1006.4 |
| 20260904154515 | 66 | 339 | 0.0 | 4.0 | 0.00 | 0.36 | 0.02 | 83 | 1006.4 |
| 20260904153014 | 66 | 347 | 0.0 | 6.0 | 0.00 | 0.36 | 0.02 | 84 | 1006.5 |
| 20260904151510 | 65 | 304 | 0.0 | 2.0 | 0.00 | 0.36 | 0.02 | 85 | 1006.8 |
| 20260904150026 | 64 | 289 | 0.0 | 0.0 | 0.00 | 0.39 | 0.02 | 86 | 1006.8 |
| 20260904144507 | 64 | 294 | 0.0 | 3.0 | 0.00 | 0.39 | 0.02 | 87 | 1006.9 |
| 20260904143005 | 64 | 360 | 0.0 | 3.0 | 0.00 | 0.39 | 0.02 | 87 | 1007.0 |
| 20260904141504 | 64 | 334 | 0.0 | 0.0 | 0.00 | 0.39 | 0.02 | 87 | 1007.0 |
| 20260904140003 | 63 | 334 | 0.0 | 0.0 | 0.00 | 0.42 | 0.02 | 87 | 1006.9 |
| 20260904134500 | 63 | 38 | 0.0 | 0.0 | 0.00 | 0.42 | 0.02 | 88 | 1007.0 |
| 20260904133104 | 63 | 38 | 0.0 | 0.0 | 0.00 | 0.42 | 0.02 | 88 | 1007.0 |
| 20260904131559 | 62 | 116 | 0.0 | 0.0 | 0.00 | 0.42 | 0.02 | 88 | 1007.0 |
| 20260904130058 | 62 | 115 | 0.0 | 1.0 | 0.00 | 0.42 | 0.02 | 88 | 1006.9 |
| 20260904124609 | 62 | 115 | 0.0 | 0.0 | 0.00 | 0.49 | 0.02 | 88 | 1007.1 |
| 20260904123054 | 62 | 115 | 0.0 | 0.0 | 0.00 | 0.49 | 0.02 | 88 | 1007.1 |
| 20260904121554 | 61 | 115 | 0.0 | 0.0 | 0.00 | 0.49 | 0.02 | 87 | 1007.1 |
| 20260904120056 | 61 | 115 | 0.0 | 0.0 | 0.01 | 0.49 | 0.02 | 87 | 1007.2 |
| 20260904114552 | 61 | 115 | 0.0 | 0.0 | 0.01 | 0.51 | 0.02 | 88 | 1007.3 |
| 20260904113053 | 61 | 115 | 0.0 | 0.0 | 0.01 | 0.51 | 0.02 | 87 | 1007.3 |
| 20260904111552 | 60 | 115 | 0.0 | 0.0 | 0.01 | 0.51 | 0.02 | 87 | 1007.4 |
| 20260904110053 | 60 | 115 | 0.0 | 0.0 | 0.00 | 0.50 | 0.01 | 88 | 1007.2 |
| 20260904104551 | 60 | 115 | 0.0 | 0.0 | 0.00 | 0.55 | 0.01 | 87 | 1007.1 |
| 20260904103049 | 60 | 115 | 0.0 | 0.0 | 0.00 | 0.55 | 0.01 | 87 | 1007.0 |
| 20260904101550 | 60 | 115 | 0.0 | 0.0 | 0.00 | 0.55 | 0.01 | 87 | 1007.0 |
| 20260904100054 | 60 | 115 | 0.0 | 0.0 | 0.00 | 0.55 | 0.01 | 87 | 1006.9 |
| 20260904094547 | 60 | 115 | 0.0 | 0.0 | 0.00 | 0.55 | 0.01 | 87 | 1007.0 |
| 20260904093052 | 60 | 115 | 0.0 | 0.0 | 0.00 | 0.55 | 0.01 | 87 | 1007.0 |
| 20260904091545 | 60 | 115 | 0.0 | 0.0 | 0.00 | 0.55 | 0.01 | 87 | 1007.0 |
| 20260904090043 | 60 | 115 | 0.0 | 0.0 | 0.00 | 0.55 | 0.01 | 87 | 1007.0 |
| 20260904084543 | 60 | 115 | 0.0 | 0.0 | 0.00 | 0.55 | 0.01 | 87 | 1007.1 |
| 20260904083043 | 60 | 115 | 0.0 | 0.0 | 0.01 | 0.55 | 0.01 | 87 | 1007.2 |
| 20260904081541 | 60 | 115 | 0.0 | 0.0 | 0.01 | 0.55 | 0.01 | 87 | 1007.2 |
| 20260904080040 | 60 | 115 | 0.0 | 0.0 | 0.01 | 0.55 | 0.01 | 87 | 1007.2 |
| 20260904074544 | 61 | 115 | 0.0 | 0.0 | 0.01 | 0.55 | 0.01 | 87 | 1007.3 |
| 20260904073038 | 61 | 115 | 0.0 | 0.0 | 0.00 | 0.54 | 0.00 | 87 | 1007.3 |
| 20260904071537 | 61 | 115 | 0.0 | 0.0 | 0.00 | 0.54 | 0.00 | 87 | 1007.4 |
| 20260904070035 | 61 | 115 | 0.0 | 0.0 | 0.00 | 0.54 | 0.00 | 87 | 1007.6 |
| 20260904064534 | 61 | 115 | 0.0 | 1.0 | 0.00 | 0.54 | 0.00 | 87 | 1007.7 |
| 20260904063038 | 61 | 115 | 0.0 | 0.0 | 0.00 | 0.54 | 0.00 | 87 | 1007.9 |
| 20260904061531 | 61 | 109 | 0.0 | 0.0 | 0.00 | 0.54 | 0.00 | 87 | 1008.0 |
| 20260904060029 | 61 | 109 | 0.0 | 0.0 | 0.00 | 0.54 | 0.00 | 87 | 1008.1 |
| 20260904054528 | 61 | 109 | 0.0 | 0.0 | 0.00 | 0.54 | 0.00 | 87 | 1008.3 |
| 20260904053028 | 61 | 109 | 0.0 | 0.0 | 0.00 | 0.54 | 0.00 | 87 | 1008.3 |
| 20260904051550 | 61 | 109 | 0.0 | 0.0 | 0.00 | 0.54 | 0.00 | 87 | 1008.5 |
| 20260904050024 | 61 | 109 | 0.0 | 0.0 | 0.00 | 0.54 | 0.00 | 87 | 1008.5 |
| 20260904044525 | 61 | 109 | 0.0 | 0.0 | 0.00 | 0.54 | 0.00 | 87 | 1008.6 |
| 20260904043021 | 61 | 109 | 0.0 | 0.0 | 0.01 | 0.54 | 0.00 | 87 | 1008.9 |
| 20260904041521 | 61 | 109 | 0.0 | 0.0 | 0.02 | 0.54 | 0.00 | 87 | 1009.1 |
| 20260904040022 | 61 | 109 | 0.0 | 0.0 | 0.02 | 0.54 | 0.54 | 87 | 1009.1 |
| 20260904034516 | 61 | 109 | 0.0 | 0.0 | 0.02 | 0.54 | 0.54 | 87 | 1009.2 |
| 20260904033015 | 61 | 109 | 0.0 | 0.0 | 0.02 | 0.53 | 0.53 | 87 | 1009.3 |
| 20260904031513 | 61 | 109 | 0.0 | 0.0 | 0.02 | 0.52 | 0.52 | 87 | 1009.3 |
| 20260904030012 | 61 | 109 | 0.0 | 0.0 | 0.03 | 0.52 | 0.52 | 87 | 1009.4 |
| 20260904024512 | 61 | 109 | 0.0 | 0.0 | 0.03 | 0.52 | 0.52 | 87 | 1009.5 |
| 20260904023010 | 61 | 109 | 0.0 | 0.0 | 0.03 | 0.51 | 0.51 | 87 | 1009.6 |
| 20260904021508 | 61 | 109 | 0.0 | 0.0 | 0.03 | 0.50 | 0.50 | 87 | 1009.8 |
| 20260904020008 | 61 | 109 | 0.0 | 0.0 | 0.04 | 0.49 | 0.49 | 87 | 1010.0 |
| 20260904014507 | 61 | 109 | 0.0 | 0.0 | 0.06 | 0.49 | 0.49 | 86 | 1010.0 |
| 20260904013007 | 61 | 109 | 0.0 | 0.0 | 0.06 | 0.48 | 0.48 | 86 | 1010.1 |
| 20260904011506 | 61 | 109 | 0.0 | 0.0 | 0.06 | 0.47 | 0.47 | 86 | 1010.1 |
| 20260904010011 | 61 | 109 | 0.0 | 0.0 | 0.05 | 0.45 | 0.45 | 86 | 1010.1 |
| 20260904004504 | 61 | 109 | 0.0 | 0.0 | 0.04 | 0.43 | 0.43 | 87 | 1010.1 |
| 20260904003003 | 61 | 109 | 0.0 | 0.0 | 0.05 | 0.42 | 0.42 | 86 | 1010.3 |
| 20260904001503 | 61 | 109 | 0.0 | 0.0 | 0.06 | 0.41 | 0.41 | 86 | 1010.3 |
| 20260904000003 | 61 | 109 | 0.0 | 0.0 | 0.07 | 0.40 | 0.40 | 86 | 1010.2 |
| 20260903234502 | 61 | 109 | 0.0 | 1.0 | 0.07 | 0.39 | 0.39 | 86 | 1010.1 |
| 20260903233001 | 61 | 142 | 0.0 | 0.0 | 0.06 | 0.37 | 0.37 | 86 | 1010.1 |
| 20260903231502 | 61 | 78 | 0.0 | 0.0 | 0.05 | 0.35 | 0.35 | 86 | 1010.1 |
| 20260903230100 | 61 | 92 | 0.0 | 0.0 | 0.03 | 0.33 | 0.33 | 86 | 1010.1 |
| 20260903224559 | 61 | 111 | 0.0 | 1.0 | 0.02 | 0.32 | 0.32 | 86 | 1010.2 |
| 20260903223057 | 61 | 141 | 0.0 | 0.0 | 0.01 | 0.31 | 0.31 | 86 | 1010.5 |
| 20260903221557 | 62 | 105 | 0.0 | 2.0 | 0.00 | 0.30 | 0.30 | 86 | 1010.5 |
| 20260903220056 | 62 | 166 | 0.0 | 1.0 | 0.00 | 0.30 | 0.30 | 86 | 1010.5 |
| 20260903214555 | 62 | 71 | 0.0 | 1.0 | 0.00 | 0.30 | 0.30 | 86 | 1010.6 |
| 20260903213058 | 62 | 105 | 0.0 | 1.0 | 0.00 | 0.30 | 0.30 | 86 | 1010.6 |
| 20260903211556 | 62 | 99 | 0.0 | 3.0 | 0.00 | 0.30 | 0.30 | 86 | 1010.6 |
| 20260903210107 | 62 | 143 | 0.0 | 0.0 | 0.01 | 0.30 | 0.30 | 86 | 1010.7 |
| 20260903204610 | 62 | 65 | 0.0 | 0.0 | 0.01 | 0.30 | 0.30 | 86 | 1010.8 |
| 20260903203051 | 62 | 180 | 0.0 | 1.0 | 0.01 | 0.30 | 0.30 | 86 | 1010.9 |
| 20260903201548 | 62 | 110 | 0.0 | 1.0 | 0.01 | 0.30 | 0.30 | 86 | 1010.9 |
| 20260903200053 | 62 | 139 | 0.0 | 0.0 | 0.00 | 0.28 | 0.28 | 86 | 1011.0 |